Find Starlink 36236

NORAD ID: 67078 Int'l Des: 2025-298 Owner: SPXS Country: US Constellation: starlink operational
LEOCIRCULAR

リアルタイム位置

3D地球を読み込み中...

Starlink 36236について

説明を読み込み中...

次回通過

Passes for default location (London). Set your location on the main map for personalized predictions.

高度履歴

Loading altitude history...

軌道要素

1 67078U 25298D 26107.25003472 .00029702 00000-0 24879-2 0 9995
2 67078 70.0004 277.3534 0002609 267.5921 328.0336 14.98309566 5787
Epoch: Apr 17, 2026 • Age: 12 hours

現在のステータス

高度 575.9 km
速度 7.57 km/s
衛星直下点 -9.22°S, 160.98°E
打ち上げ日 Dec 14, 2025
運用期間 0.3 years
タイプ internet

技術仕様

分類 Payload
質量 575.00 kg
乾燥質量 530.00 kg
総質量 575.00 kg
長さ 0.30 m
直径 4.10 m
スパン 29.00 m
形状 Box + pan
製造者 SPXS
バスタイプ Starlink V2MO
フェーズステータス In Orbit
所有者/国 SPXS/US

Most Searched